Location: Azul
(36.7830°S, 59.8500°W)
Time: 20:09:42
(UTC-03:00)

ISS - Pass Details

Date: 23 April 2018
Orbit: 402 x 407 km, 51.6° (Epoch: 27 April)

Event Time Altitude Azimuth Distance (km) Brightness Sun altitude
Rises 20:11:32 0° 320° (NW) 2,328 0.6 -22.3°
Reaches altitude 10° 20:13:37 10° 323° (NW) 1,474 -0.6 -22.7°
Enters shadow 20:15:16 26° 332° (NNW) 840 -2.0 -23.1°
